1500742800.22,30089,25.13,74430.5,12.07,-14.15,-15.85,0,*43
1500742801.47,30090,25.13,74430.3,12.07,-13.97,-15.49,0,*46
1500742802.76,30091,25.13,74430.3,12.09,-14.01,-15.43,0,*4B
1500742804.02,30092,25.13,74432.3,12.09,-14.01,-15.49,0,*42
1500742805.28,30093,25.13,74434.0,12.09,-13.97,-15.63,0,*43
1500742806.54,30094,25.13,74432.0,12.09,-13.97,-15.71,0,*47
1500742807.8,30095,25.13,74430.8,12.09,-14.01,-16.03,0,*48
1500742809.04,30096,25.13,74432.3,12.11,-14.01,-15.99,0,*42
1500742810.29,30097,25.13,74430.3,12.09,-14.33,-16.09,0,*41
1500742811.52,30098,25.13,74430.5,12.11,-14.65,-16.27,0,*48
1500742812.75,30099,25.13,74434.0,12.11,-14.83,-16.41,0,*41
1500742813.98,30100,25.13,74434.3,12.13,-14.89,-16.41,0,*48
1500742815.2,30101,25.13,74430.3,12.11,-15.01,-16.45,0,*4E
1500742816.41,30102,25.13,74434.3,12.11,-14.89,-16.59,0,*41
1500742817.66,30103,25.13,74430.3,12.11,-15.01,-17.03,0,*4F
1500742818.93,30104,25.13,74430.8,12.13,-15.43,-17.17,0,*49
1500742820.14,30105,25.13,74426.8,12.11,-15.29,-16.79,0,*4F
1500742821.36,30106,25.13,74432.3,12.13,-15.11,-16.45,0,*4A
1500742822.6,30107,25.13,74430.3,12.13,-15.99,-17.63,0,*4E
1500742823.85,30108,25.13,74428.3,12.13,-16.27,-17.73,0,*46
1500742825.08,30109,25.13,74430.5,12.11,-15.81,-17.31,0,*4C
1500742826.3,30110,25.13,74432.0,12.11,-15.81,-17.31,0,*44
1500742827.56,30111,25.13,74430.8,12.11,-15.57,-17.07,0,*4B
1500742828.8,30112,25.13,74428.3,12.11,-15.53,-17.21,0,*48
1500742830.07,30113,25.13,74430.8,12.13,-15.43,-17.17,0,*4F
1500742831.3,30114,25.13,74430.3,12.11,-15.29,-17.17,0,*46
1500742832.53,30115,25.13,74430.8,12.13,-15.53,-17.49,0,*43
1500742833.78,30116,25.13,74432.8,12.11,-15.57,-17.63,0,*4E
1500742835.01,30117,25.13,74428.5,12.11,-15.39,-17.49,0,*4F
1500742836.24,30118,25.13,74428.8,12.11,-15.53,-17.63,0,*44
1500742837.5,30119,25.13,74426.5,12.13,-15.71,-17.97,0,*4C
1500742838.75,30120,25.13,74430.5,12.11,-15.57,-17.79,0,*40
1500742839.98,30121,25.13,74426.5,12.11,-14.97,-17.35,0,*44
1500742841.23,30122,25.13,74432.0,12.13,-15.25,-17.79,0,*45
1500742842.49,30123,25.13,74430.8,12.11,-15.39,-17.59,0,*49
1500742843.72,30124,25.13,74432.0,12.11,-15.25,-17.45,0,*4E
1500742844.96,30125,25.13,74434.3,12.13,-15.01,-17.49,0,*47
1500742846.19,30126,25.13,74430.0,12.11,-15.43,-17.73,0,*49
1500742847.44,30127,25.13,74428.8,12.09,-15.15,-17.79,0,*48
1500742848.64,30128,25.13,74430.8,12.07,-15.75,-18.17,0,*48
1500742849.85,30129,25.13,74428.3,12.11,-15.71,-18.11,0,*4C
1500742851.08,30130,25.13,74428.8,12.11,-15.11,-17.45,0,*4C
1500742852.31,30131,25.13,74428.8,12.07,-14.83,-17.49,0,*4C
1500742853.56,30132,25.13,74428.3,12.07,-14.55,-17.25,0,*4E
1500742854.82,30133,25.13,74432.8,12.07,-14.05,-17.11,0,*4D
1500742856.05,30134,25.13,74430.3,12.09,-13.19,-16.03,0,*4C
1500742857.27,30135,25.13,74434.8,12.07,-11.51,-14.69,0,*43
1500742858.52,30136,25.13,74432.3,12.09,-10.49,-14.75,0,*4B
1500742859.77,30137,25.13,74432.8,12.11,-13.29,-17.63,0,*42
1500742860.97,30138,25.13,74434.3,12.07,-14.19,-18.25,0,*43
1500742862.24,30139,25.13,74434.3,12.07,-14.47,-17.97,0,*4F
1500742863.46,30140,25.13,74428.8,12.07,-14.69,-17.55,0,*43
1500742864.68,30141,25.13,74432.0,12.07,-14.69,-17.21,0,*41
1500742865.91,30142,25.13,74430.3,12.07,-15.57,-17.87,0,*42
1500742867.14,30143,25.13,74430.5,12.07,-15.57,-17.83,0,*47
1500742868.36,30144,25.13,74428.5,12.07,-15.15,-17.55,0,*4D
1500742869.59,30145,25.19,74434.5,12.07,-15.07,-17.63,0,*4A
1500742870.84,30146,25.13,74434.3,12.07,-13.01,-15.85,0,*43
1500742872.1,30147,25.13,74430.3,12.07,-12.57,-16.09,0,*47
1500742873.35,30148,25.13,74432.0,12.07,-11.37,-15.35,0,*41
1500742874.59,30149,25.13,74434.5,12.07,-9.57,-14.01,0,*79
1500742875.82,30150,25.13,74434.5,12.07,-10.63,-15.95,0,*42
1500742877.07,30151,25.13,74432.0,12.05,-11.19,-16.65,0,*41
1500742878.33,30152,25.13,74434.5,12.05,-10.23,-16.27,0,*4C
1500742879.57,30153,25.13,74428.5,12.07,-9.49,-15.21,0,*7E
1500742880.79,30154,25.13,74432.0,12.09,-10.53,-15.15,0,*43
1500742882.02,30155,25.13,74430.3,12.07,-13.19,-16.23,0,*47
1500742883.28,30156,25.13,74428.0,12.07,-13.61,-16.23,0,*4B
1500742884.53,30157,25.13,74432.8,12.07,-13.29,-16.17,0,*41
1500742885.77,30158,25.13,74430.8,12.07,-13.97,-16.59,0,*41
1500742887.0,30159,25.13,74428.0,12.07,-14.69,-17.07,0,*4C
1500742888.28,30160,25.13,74428.8,12.09,-13.97,-15.89,0,*4A
1500742889.56,30161,25.13,74432.0,12.09,-14.55,-16.31,0,*42
1500742890.76,30162,25.13,74434.3,12.07,-14.89,-16.79,0,*42
1500742892.0,30163,25.13,74430.8,12.07,-14.89,-17.07,0,*4B
1500742893.28,30164,25.19,74434.5,12.09,-14.55,-16.65,0,*46
1500742894.53,30165,25.13,74432.5,12.09,-15.07,-17.11,0,*43
1500742895.77,30166,25.13,74434.5,12.09,-15.57,-17.69,0,*4A
1500742896.97,30167,25.13,74434.5,12.07,-14.69,-16.79,0,*49
1500742898.23,30168,25.13,74430.5,12.07,-13.97,-17.25,0,*48
1500742899.47,30169,25.13,74428.8,12.07,-12.83,-16.31,0,*49
1500742900.7,30170,25.13,74434.5,12.07,-11.97,-15.15,0,*42
1500742901.91,30171,25.13,74432.8,12.07,-11.01,-14.89,0,*48
1500742903.15,30172,25.13,74430.5,12.07,-14.19,-17.97,0,*4B
1500742904.37,30173,25.13,74432.0,12.07,-15.01,-18.41,0,*46
1500742905.65,30174,25.13,74430.8,12.05,-12.79,-16.09,0,*49
1500742906.91,30175,25.13,74430.3,12.05,-14.23,-17.55,0,*49
1500742908.17,30176,25.19,74434.5,12.05,-14.05,-17.69,0,*41
1500742909.42,30177,25.13,74426.0,12.05,-10.41,-14.61,0,*4F
1500742910.66,30178,25.13,74430.8,12.01,-11.15,-16.59,0,*4D
1500742911.92,30179,25.13,74432.3,12.01,-13.55,-17.79,0,*49
1500742913.15,30180,25.13,74428.5,12.01,-14.65,-18.07,0,*4D
1500742914.37,30181,25.13,74432.0,12.01,-14.65,-17.73,0,*40
1500742915.6,30182,25.19,74434.3,12.01,-14.69,-17.49,0,*46
1500742916.85,30183,25.19,74432.5,12.01,-14.69,-17.59,0,*46
1500742918.1,30184,25.13,74430.3,11.99,-14.93,-17.59,0,*46
1500742919.33,30185,25.13,74430.0,11.99,-14.51,-17.31,0,*47
1500742920.59,30186,25.13,74432.3,12.01,-13.23,-16.31,0,*45
1500742921.8,30187,25.13,74428.3,11.99,-13.23,-15.99,0,*47
1500742923.03,30188,25.19,74432.3,11.99,-12.79,-16.03,0,*46
1500742924.28,30189,25.13,74428.5,12.01,-11.85,-15.99,0,*45
1500742925.57,30190,25.19,74434.3,12.01,-11.81,-15.81,0,*40
1500742926.81,30191,25.13,74432.0,12.01,-12.21,-15.95,0,*4D
1500742928.06,30192,25.19,74434.5,12.05,-11.51,-15.11,0,*42
1500742929.28,30193,25.19,74432.5,12.05,-11.19,-14.37,0,*4A
1500742930.53,30194,25.13,74430.5,12.05,-10.53,-14.05,0,*43
1500742931.79,30195,25.13,74432.8,12.01,-10.71,-14.15,0,*47
1500742933.04,30196,25.19,74434.3,12.05,-10.23,-14.05,0,*46
1500742934.33,30197,25.13,74430.3,12.01,-10.71,-16.13,0,*41
1500742935.59,30198,25.13,74432.3,12.01,-11.55,-15.71,0,*4E
1500742936.82,30199,25.19,74434.0,12.05,-10.93,-14.33,0,*47
1500742938.05,30200,25.13,74430.5,12.01,-10.49,-14.37,0,*43
1500742939.26,30201,25.13,74428.0,12.05,-9.89,-14.23,0,*77
1500742940.53,30202,25.13,74430.8,12.05,-9.61,-13.37,0,*70
1500742941.78,30203,25.19,74434.0,12.05,-10.41,-13.23,0,*4E
1500742943.01,30204,25.13,74428.0,12.07,-11.37,-13.55,0,*4A
1500742944.29,30205,25.19,74432.5,12.09,-11.37,-14.01,0,*43
1500742945.5,30206,25.19,74428.5,12.07,-12.21,-15.15,0,*4E
1500742946.73,30207,25.13,74430.3,12.07,-12.75,-15.63,0,*4F
1500742948.01,30208,25.19,74430.0,12.09,-13.01,-15.85,0,*44
1500742949.21,30209,25.13,74428.3,12.07,-12.47,-15.75,0,*47
1500742950.44,30210,25.19,74428.8,12.07,-12.15,-16.03,0,*4A
1500742951.66,30211,25.13,74430.0,12.07,-11.85,-16.45,0,*43
1500742952.91,30212,25.19,74430.5,12.07,-11.89,-16.23,0,*4C
1500742954.15,30213,25.13,74430.3,12.09,-12.97,-16.75,0,*4C
1500742955.36,30214,25.19,74430.0,12.07,-13.69,-17.83,0,*4D
1500742956.56,30215,25.19,74428.0,12.07,-14.19,-17.69,0,*48
1500742957.82,30216,25.13,74428.5,12.07,-14.55,-17.63,0,*49
1500742959.08,30217,25.19,74430.0,12.01,-14.11,-17.45,0,*4A
1500742960.31,30218,25.19,74428.0,12.05,-13.19,-17.73,0,*4B
1500742961.56,30219,25.19,74432.0,12.01,-13.65,-17.17,0,*47
1500742962.83,30220,25.19,74430.3,12.01,-13.97,-17.35,0,*40
1500742964.07,30221,25.19,74428.5,12.05,-13.51,-16.89,0,*49
1500742965.32,30222,25.19,74428.0,12.01,-12.57,-16.93,0,*42
1500742966.56,30223,25.19,74430.0,12.01,-12.21,-16.41,0,*4D
1500742967.81,30224,25.19,74426.5,12.05,-13.15,-17.41,0,*49
1500742969.06,30225,25.19,74430.8,12.01,-12.07,-16.45,0,*4B
1500742970.35,30226,25.13,74424.8,12.01,-12.65,-17.07,0,*4B
1500742971.63,30227,25.19,74428.0,12.01,-12.83,-17.45,0,*44
1500742972.89,30228,25.19,74432.3,12.01,-13.19,-17.45,0,*49
1500742974.15,30229,25.19,74430.8,11.99,-13.37,-17.63,0,*42
1500742975.36,30230,25.19,74428.5,11.99,-13.23,-17.35,0,*4C
1500742976.62,30231,25.19,74428.8,11.99,-12.65,-16.69,0,*46
1500742977.85,30232,25.19,74430.5,11.99,-11.59,-15.15,0,*41
1500742979.1,30233,25.19,74428.8,12.01,-11.41,-15.29,0,*44
1500742980.36,30234,25.19,74428.8,12.01,-12.71,-16.55,0,*4B
1500742981.59,30235,25.19,74428.5,12.05,-12.89,-16.83,0,*42
1500742982.82,30236,25.19,74428.3,12.01,-13.65,-17.49,0,*41
1500742984.08,30237,25.19,74430.0,11.99,-14.05,-17.63,0,*4B
1500742985.34,30238,25.19,74426.0,12.01,-14.23,-17.59,0,*4B
1500742986.62,30239,25.19,74428.0,12.05,-14.51,-17.55,0,*47
1500742987.89,30240,25.19,74424.8,12.01,-14.83,-17.35,0,*44
1500742989.14,30241,25.19,74426.5,12.01,-14.93,-17.31,0,*40
1500742990.41,30242,25.19,74424.8,12.01,-15.01,-17.21,0,*48
1500742991.7,30243,25.19,74426.0,12.01,-15.01,-17.07,0,*4D
1500742992.95,30244,25.19,74422.3,12.01,-14.93,-16.59,0,*4A
1500742994.21,30245,25.19,74426.8,12.01,-14.55,-15.71,0,*48
1500742995.51,30246,25.19,74424.8,12.01,-13.83,-14.97,0,*4E
1500742996.76,30247,25.19,74426.5,12.05,-13.73,-14.75,0,*48
1500742998.05,30248,25.19,74424.5,12.01,-13.97,-14.93,0,*41
1500742999.31,30249,25.19,74426.3,12.05,-14.01,-14.61,0,*41
1500743000.56,30250,25.19,74430.0,12.05,-13.65,-14.47,0,*48
1500743001.82,30251,25.19,74426.5,12.01,-13.65,-13.97,0,*47
1500743003.05,30252,25.19,74424.8,12.05,-13.07,-13.51,0,*4E
1500743004.3,30253,25.19,74424.8,12.01,-12.79,-13.69,0,*48
1500743005.56,30254,25.19,74430.0,12.05,-12.25,-14.05,0,*4F
1500743006.79,30255,25.19,74424.0,12.05,-12.93,-15.11,0,*47
1500743008.06,30256,25.19,74430.5,12.05,-14.93,-16.65,0,*42
1500743009.3,30257,25.19,74424.3,12.05,-14.89,-15.53,0,*4E
1500743010.53,30258,25.19,74426.0,12.07,-14.55,-15.49,0,*49
1500743011.73,30259,25.19,74424.8,12.07,-14.69,-15.07,0,*4D
1500743012.98,30260,25.19,74426.8,12.05,-14.89,-14.79,0,*43
1500743014.23,30261,25.19,74426.5,12.09,-14.69,-13.61,0,*4E
1500743015.42,30262,25.19,74428.3,12.07,-13.15,-13.43,0,*4F
1500743016.65,30263,25.19,74426.0,12.07,-15.35,-16.03,0,*4B
1500743017.9,30264,25.19,74424.5,12.09,-15.89,-15.75,0,*47
1500743019.13,30265,25.19,74426.3,12.07,-14.29,-14.47,0,*43
1500743020.38,30266,25.19,74426.0,12.07,-15.21,-15.85,0,*46
1500743021.63,30267,25.19,74424.3,12.05,-15.81,-16.79,0,*4F
1500743022.91,30268,25.19,74424.3,12.05,-15.81,-17.17,0,*49
1500743024.14,30269,25.19,74428.0,12.01,-15.71,-17.35,0,*43
1500743025.4,30270,25.19,74424.8,12.05,-15.53,-17.03,0,*4A
1500743026.63,30271,25.19,74424.8,12.01,-15.29,-16.41,0,*45
1500743027.93,30272,25.19,74426.0,12.01,-14.83,-15.81,0,*48
1500743029.16,30273,25.19,74426.8,12.05,-14.37,-15.95,0,*47
1500743030.44,30274,25.19,74424.8,12.01,-14.93,-16.65,0,*46
1500743031.69,30275,25.19,74428.0,12.05,-15.75,-17.45,0,*49
1500743032.95,30276,25.19,74426.8,12.01,-15.95,-17.63,0,*44
1500743034.2,30277,25.19,74424.3,12.01,-15.99,-17.59,0,*40
1500743035.46,30278,25.19,74424.3,12.05,-16.13,-17.87,0,*49
1500743036.7,30279,25.19,74422.5,12.01,-16.03,-17.87,0,*4D
1500743037.93,30280,25.19,74424.0,12.01,-15.95,-17.73,0,*4C
1500743039.19,30281,25.19,74418.3,12.01,-16.13,-17.73,0,*40
1500743040.44,30282,25.19,74424.0,12.01,-15.99,-17.79,0,*48
1500743041.69,30283,25.19,74422.3,12.01,-15.81,-17.31,0,*4C
1500743042.94,30284,25.19,74422.5,12.01,-15.81,-17.31,0,*4B
1500743044.17,30285,25.19,74420.8,12.01,-15.95,-17.49,0,*40
1500743045.43,30286,25.19,74422.0,12.05,-15.75,-17.11,0,*44
1500743046.68,30287,25.19,74420.3,12.01,-15.95,-17.17,0,*49
1500743047.91,30288,25.19,74422.5,12.01,-15.53,-16.89,0,*4A
1500743049.17,30289,25.19,74424.5,12.05,-15.75,-17.11,0,*4B
1500743050.45,30290,25.19,74426.0,12.01,-16.17,-17.59,0,*4C
1500743051.71,30291,25.19,74426.5,12.01,-15.95,-17.59,0,*44
1500743052.97,30292,25.19,74420.3,12.01,-15.85,-17.31,0,*48
1500743054.22,30293,25.19,74424.8,12.01,-15.71,-17.21,0,*43
1500743055.48,30294,25.19,74424.3,12.01,-14.55,-16.45,0,*40
1500743056.71,30295,25.19,74424.0,12.01,-14.37,-16.89,0,*45
1500743057.94,30296,25.19,74426.5,11.99,-14.55,-16.83,0,*4A
1500743059.2,30297,25.19,74424.3,11.99,-14.79,-17.17,0,*49
1500743060.43,30298,25.19,74422.0,11.99,-13.43,-15.39,0,*46
1500743061.67,30299,25.19,74426.8,11.99,-13.43,-14.79,0,*42
1500743062.91,30300,25.19,74426.5,11.99,-13.83,-15.53,0,*46
1500743064.11,30301,25.19,74426.8,11.99,-14.65,-16.89,0,*4C
1500743065.36,30302,25.19,74424.5,12.01,-14.43,-16.93,0,*42
1500743066.61,30303,25.19,74428.0,11.99,-15.01,-17.45,0,*4C
1500743067.86,30304,25.19,74430.8,11.99,-14.97,-17.45,0,*45
1500743069.08,30305,25.19,74426.0,11.97,-15.07,-17.31,0,*41
1500743070.29,30306,25.19,74430.0,11.99,-15.71,-18.11,0,*40
1500743071.52,30307,25.19,74426.3,11.99,-15.67,-17.93,0,*43
1500743072.75,30308,25.19,74428.5,11.97,-15.63,-17.69,0,*43
1500743073.95,30309,25.19,74430.8,11.99,-15.29,-16.93,0,*46
1500743075.17,30310,25.19,74434.3,11.97,-14.61,-16.97,0,*49
1500743076.43,30311,25.19,74430.0,11.97,-15.63,-17.79,0,*4A
1500743077.65,30312,25.19,74430.3,11.99,-16.27,-18.25,0,*42
1500743078.9,30313,25.19,74424.8,11.97,-16.79,-18.89,0,*40
1500743080.16,30314,25.19,74424.0,11.97,-16.37,-18.31,0,*4E
1500743081.44,30315,25.19,74424.8,11.95,-16.27,-18.35,0,*48
1500743082.7,30316,25.19,74426.5,11.93,-16.13,-18.31,0,*4E
1500743083.96,30317,25.19,74424.5,11.95,-15.63,-17.59,0,*4C
1500743085.16,30318,25.19,74428.5,11.93,-15.95,-17.69,0,*4F
1500743086.39,30319,25.19,74422.8,11.93,-16.37,-18.01,0,*44
1500743087.64,30320,25.19,74426.0,11.93,-16.65,-18.35,0,*4E
1500743088.87,30321,25.19,74424.5,11.95,-16.97,-18.65,0,*41
1500743090.07,30322,25.19,74426.5,11.93,-16.93,-18.49,0,*4E
1500743091.29,30323,25.19,74426.8,11.91,-16.97,-18.49,0,*49
1500743092.51,30324,25.19,74428.8,11.91,-16.97,-18.41,0,*46
1500743093.73,30325,25.19,74426.0,11.91,-17.49,-19.03,0,*42
1500743094.95,30326,25.19,74426.3,11.89,-17.63,-19.17,0,*45
1500743096.14,30327,25.19,74422.8,11.89,-17.49,-18.99,0,*4B
1500743097.37,30328,25.19,74426.0,11.89,-17.07,-18.69,0,*41
1500743098.62,30329,25.19,74422.5,11.87,-17.03,-18.41,0,*40
1500743099.88,30330,25.19,74424.0,11.87,-17.41,-18.83,0,*40
1500743101.13,30331,25.19,74426.0,11.87,-17.41,-18.83,0,*41
1500743102.38,30332,25.19,74424.5,11.87,-18.07,-19.23,0,*44
1500743103.59,30333,25.19,74424.0,11.85,-17.31,-18.73,0,*49
1500743104.87,30334,25.19,74426.8,11.87,-17.41,-18.89,0,*4E
1500743106.1,30335,25.19,74424.5,11.85,-17.97,-19.37,0,*42
1500743107.36,30336,25.19,74422.5,11.81,-18.01,-19.41,0,*44
1500743108.59,30337,25.19,74422.8,11.79,-17.73,-19.17,0,*4B
1500743109.78,30338,25.19,74420.8,11.81,-17.73,-19.07,0,*42
1500743111.01,30339,25.19,74424.3,11.81,-17.11,-18.65,0,*42
1500743112.26,30340,25.19,74422.8,11.79,-16.97,-18.55,0,*47
1500743113.55,30341,25.19,74426.3,11.79,-17.45,-18.93,0,*42
1500743114.83,30342,25.19,74426.0,11.75,-17.07,-18.55,0,*41
1500743116.05,30343,25.19,74424.5,11.75,-16.89,-18.41,0,*42
1500743117.25,30344,25.19,74424.0,11.73,-16.79,-18.25,0,*4E
1500743118.49,30345,25.19,74426.3,11.75,-16.75,-18.21,0,*41
1500743119.74,30346,25.19,74424.3,11.75,-16.93,-18.31,0,*4B
1500743120.98,30347,25.19,74424.8,11.75,-16.75,-18.11,0,*40
1500743122.24,30348,25.19,74422.8,11.79,-17.03,-18.41,0,*46
1500743123.5,30349,25.19,74428.5,11.75,-16.79,-17.97,0,*43
1500743124.76,30350,25.19,74424.8,11.75,-16.79,-17.97,0,*4B
1500743126.04,30351,25.19,74424.8,11.79,-17.11,-18.35,0,*4E
1500743127.33,30352,25.19,74426.0,11.79,-17.03,-18.35,0,*4E
1500743128.6,30353,25.19,74426.8,11.75,-17.25,-18.59,0,*4D
1500743129.83,30354,25.19,74424.5,11.75,-17.49,-18.73,0,*48
1500743131.06,30355,25.19,74422.0,11.73,-17.03,-18.17,0,*43
1500743132.3,30356,25.19,74422.8,11.73,-16.69,-17.69,0,*4B
1500743133.56,30357,25.19,74428.0,11.75,-16.65,-17.69,0,*40
1500743134.82,30358,25.19,74428.5,11.73,-16.69,-18.31,0,*47
1500743136.07,30359,25.19,74424.8,11.73,-17.55,-18.93,0,*40
1500743137.28,30360,25.19,74426.8,11.73,-17.31,-18.73,0,*46
1500743138.51,30361,25.19,74424.5,11.75,-17.69,-19.17,0,*4F
1500743139.8,30362,25.19,74430.0,11.71,-18.31,-19.57,0,*4E
1500743141.01,30363,25.19,74424.0,11.73,-18.41,-19.75,0,*4A
1500743142.25,30364,25.19,74424.5,11.69,-18.07,-19.57,0,*44
1500743143.46,30365,25.19,74424.3,11.69,-18.17,-19.47,0,*45
1500743144.67,30366,25.19,74424.8,11.69,-17.87,-19.13,0,*41
1500743145.9,30367,25.19,74426.0,11.67,-17.49,-18.73,0,*4B
1500743147.17,30368,25.19,74426.8,11.67,-17.41,-18.73,0,*4C
1500743148.4,30369,25.25,74430.5,11.67,-17.83,-19.13,0,*44
1500743149.63,30370,25.25,74428.8,11.65,-18.25,-19.65,0,*4C
1500743150.84,30371,25.19,74426.5,11.65,-18.41,-19.71,0,*4A
1500743152.07,30372,25.19,74426.0,11.65,-18.45,-19.65,0,*48
1500743153.32,30373,25.19,74420.3,11.65,-17.97,-19.31,0,*48
1500743154.55,30374,25.25,74424.5,11.65,-17.87,-19.23,0,*4D
1500743155.75,30375,25.19,74422.8,11.65,-17.69,-19.03,0,*4E
1500743156.98,30376,25.19,74420.5,11.63,-17.73,-18.93,0,*48
1500743158.24,30377,25.19,74422.3,11.61,-17.41,-18.65,0,*43
1500743159.46,30378,25.19,74422.3,11.63,-17.35,-18.59,0,*42
1500743160.71,30379,25.25,74424.3,11.63,-17.55,-18.89,0,*48
1500743161.91,30380,25.19,74420.5,11.63,-17.69,-18.79,0,*4E
1500743163.17,30381,25.19,74422.5,11.61,-17.93,-19.17,0,*41
1500743164.41,30382,25.25,74424.0,11.61,-17.79,-18.99,0,*41
1500743165.67,30383,25.19,74426.8,11.61,-17.41,-18.65,0,*48
1500743166.9,30384,25.25,74424.5,11.61,-17.49,-18.79,0,*4A
1500743168.12,30385,25.19,74422.0,11.61,-17.73,-18.99,0,*4C
1500743169.38,30386,25.19,74420.0,11.61,-18.17,-19.41,0,*46
1500743170.63,30387,25.25,74420.0,11.61,-18.45,-19.61,0,*42
1500743171.86,30388,25.19,74420.5,11.59,-17.93,-19.13,0,*47
1500743173.07,30389,25.19,74424.0,11.59,-17.49,-18.65,0,*41
1500743174.3,30390,25.19,74428.0,11.59,-17.21,-18.49,0,*49
1500743175.55,30391,25.25,74428.5,11.57,-17.21,-18.41,0,*4E
1500743176.8,30392,25.25,74428.5,11.61,-17.11,-18.17,0,*48
1500743178.06,30393,25.25,74428.3,11.57,-17.17,-18.11,0,*4C
1500743179.31,30394,25.19,74424.3,11.59,-17.03,-18.01,0,*41
1500743180.54,30395,25.19,74422.8,11.59,-17.17,-18.45,0,*45
1500743181.78,30396,25.25,74428.3,11.59,-17.45,-18.49,0,*4D
1500743183.01,30397,25.25,74428.0,11.59,-17.25,-18.49,0,*4A
1500743184.25,30398,25.25,74426.3,11.61,-17.31,-18.55,0,*46
1500743185.5,30399,25.25,74428.3,11.61,-17.59,-18.79,0,*47
1500743186.76,30400,25.19,74426.3,11.59,-17.41,-18.55,0,*4C
1500743188.04,30401,25.25,74430.8,11.57,-17.97,-19.27,0,*4C
1500743189.27,30402,25.25,74422.0,11.57,-18.83,-19.91,0,*48
1500743190.52,30403,25.25,74420.5,11.57,-18.89,-20.05,0,*44
1500743191.75,30404,25.25,74418.8,11.53,-19.03,-20.09,0,*48
1500743192.98,30405,25.19,74416.5,11.53,-18.79,-19.99,0,*46
1500743194.21,30406,25.25,74418.3,11.53,-18.11,-19.17,0,*4D
1500743195.46,30407,25.25,74420.0,11.53,-18.11,-19.23,0,*4B
1500743196.69,30408,25.25,74422.0,11.51,-18.11,-19.23,0,*46
1500743197.92,30409,25.25,74418.3,11.51,-17.87,-18.93,0,*4D
1500743199.17,30410,25.25,74420.5,11.49,-17.93,-19.13,0,*40
1500743200.41,30411,25.19,74422.3,11.51,-17.41,-18.65,0,*47
1500743201.66,30412,25.19,74420.0,11.49,-18.31,-19.51,0,*43
1500743202.91,30413,25.25,74422.5,11.49,-17.93,-18.99,0,*40
1500743204.17,30414,25.25,74422.3,11.47,-18.55,-19.61,0,*4A
1500743205.38,30415,25.19,74422.3,11.47,-18.11,-19.17,0,*4A
1500743206.61,30416,25.19,74418.8,11.47,-17.97,-19.03,0,*4D
1500743207.83,30417,25.19,74420.8,11.47,-17.93,-19.03,0,*48
1500743209.06,30418,25.25,74426.3,11.47,-17.93,-18.83,0,*4E
1500743210.29,30419,25.25,74426.5,11.47,-17.49,-18.55,0,*43
1500743211.52,30420,25.25,74426.0,11.47,-17.59,-18.65,0,*4B
1500743212.73,30421,25.25,74422.8,11.47,-17.35,-18.49,0,*4E
1500743213.98,30422,25.25,74420.8,11.47,-17.93,-18.89,0,*4D
1500743215.23,30423,25.25,74422.8,11.47,-17.93,-18.89,0,*4C
1500743216.46,30424,25.19,74418.0,11.47,-17.79,-18.83,0,*45
1500743217.74,30425,25.25,74422.3,11.45,-17.45,-18.35,0,*44
1500743218.97,30426,25.25,74420.5,11.47,-17.31,-18.35,0,*46
1500743220.23,30427,25.25,74424.0,11.47,-17.59,-18.55,0,*4F
1500743221.46,30428,25.25,74428.0,11.47,-17.21,-18.07,0,*48
1500743222.69,30429,25.25,74426.5,11.47,-17.83,-18.89,0,*47
1500743223.92,30430,25.25,74422.0,11.47,-18.11,-19.27,0,*4E
1500743225.18,30431,25.25,74424.5,11.45,-18.21,-19.27,0,*4E
1500743226.41,30432,25.25,74422.3,11.43,-17.87,-18.89,0,*4D
1500743227.61,30433,25.19,74422.3,11.43,-17.73,-18.79,0,*48
1500743228.86,30434,25.25,74426.5,11.45,-17.79,-18.69,0,*42
1500743230.11,30435,25.25,74422.5,11.43,-17.55,-18.55,0,*44
1500743231.34,30436,25.25,74426.5,11.45,-18.07,-19.03,0,*4B
1500743232.57,30437,25.25,74422.0,11.43,-18.11,-18.93,0,*43
1500743233.78,30438,25.25,74424.0,11.43,-18.41,-19.47,0,*41
1500743235.01,30439,25.25,74420.0,11.45,-17.69,-18.73,0,*45
1500743236.25,30440,25.25,74424.0,11.43,-17.63,-18.59,0,*4F
1500743237.48,30441,25.25,74424.8,11.43,-17.63,-18.45,0,*43
1500743238.73,30442,25.25,74420.8,11.45,-17.79,-18.65,0,*4F
1500743239.97,30443,25.25,74426.5,11.43,-17.63,-18.59,0,*4C
1500743241.2,30444,25.25,74424.5,11.43,-17.55,-18.45,0,*43
1500743242.43,30445,25.25,74420.3,11.41,-17.73,-18.73,0,*41
1500743243.69,30446,25.25,74422.0,11.41,-18.07,-18.93,0,*40
1500743244.9,30447,25.25,74420.8,11.39,-18.07,-18.99,0,*44
1500743246.14,30448,25.25,74424.3,11.41,-17.79,-18.79,0,*4C
1500743247.39,30449,25.25,74426.3,11.41,-17.59,-18.49,0,*4C
1500743248.63,30450,25.25,74426.8,11.43,-17.41,-18.17,0,*44
1500743249.86,30451,25.25,74428.8,11.41,-17.31,-18.07,0,*41
1500743251.1,30452,25.25,74428.3,11.39,-17.17,-18.07,0,*49
1500743252.38,30453,25.25,74424.0,11.41,-17.03,-18.01,0,*44
1500743253.64,30454,25.25,74424.8,11.41,-17.31,-18.31,0,*41
1500743254.9,30455,25.25,74424.0,11.41,-17.45,-18.45,0,*40
1500743256.15,30456,25.25,74430.8,11.41,-17.55,-18.49,0,*4E
1500743257.39,30457,25.25,74426.0,11.39,-17.55,-18.45,0,*4C
1500743258.61,30458,25.25,74426.0,11.41,-17.69,-18.49,0,*4F
1500743259.87,30459,25.25,74426.0,11.41,-18.07,-18.93,0,*4E
1500743261.12,30460,25.25,74424.5,11.41,-17.79,-18.73,0,*4C
1500743262.32,30461,25.25,74424.0,11.39,-18.21,-19.07,0,*42
1500743263.54,30462,25.25,74426.5,11.39,-17.87,-18.65,0,*47
1500743264.76,30463,25.25,74422.5,11.39,-17.73,-18.59,0,*42
1500743266.0,30464,25.25,74424.0,11.39,-17.59,-18.49,0,*4C
1500743267.2,30465,25.25,74426.3,11.39,-17.73,-18.49,0,*45
1500743268.47,30466,25.25,74428.0,11.37,-17.49,-18.35,0,*4A
1500743269.76,30467,25.25,74424.8,11.37,-17.59,-18.35,0,*4A
1500743271.03,30468,25.25,74424.3,11.37,-17.63,-18.55,0,*4A
1500743272.3,30469,25.25,74426.0,11.37,-17.59,-18.49,0,*4F
1500743273.56,30470,25.25,74422.5,11.37,-17.93,-18.69,0,*43
1500743274.78,30471,25.25,74420.3,11.35,-17.63,-18.41,0,*45
1500743276.02,30472,25.25,74422.8,11.35,-17.49,-18.35,0,*4D
1500743277.28,30473,25.25,74418.5,11.37,-17.73,-18.55,0,*41
1500743278.54,30474,25.25,74422.3,11.35,-17.59,-18.35,0,*4A
1500743279.78,30475,25.25,74420.0,11.37,-17.35,-18.21,0,*46
1500743281.02,30476,25.25,74420.5,11.35,-17.07,-18.07,0,*42
1500743282.26,30477,25.25,74422.5,11.37,-16.75,-17.49,0,*40
1500743283.52,30478,25.25,74420.5,11.39,-16.69,-17.41,0,*44
1500743284.76,30479,25.25,74424.0,11.39,-16.83,-17.55,0,*44
1500743286.02,30480,25.25,74424.8,11.39,-17.03,-17.93,0,*41
1500743287.29,30481,25.25,74424.5,11.37,-17.03,-17.83,0,*4F
1500743288.58,30482,25.25,74424.0,11.37,-17.07,-17.97,0,*4D
1500743289.84,30483,25.25,74422.0,11.37,-16.93,-17.97,0,*40
1500743291.08,30484,25.25,74420.5,11.37,-16.83,-17.83,0,*43
1500743292.33,30485,25.25,74426.0,11.37,-16.55,-17.83,0,*49
1500743293.57,30486,25.25,74424.8,11.37,-16.45,-17.73,0,*44
1500743294.83,30487,25.25,74424.5,11.37,-16.17,-17.73,0,*42
1500743296.11,30488,25.25,74422.0,11.37,-16.27,-17.79,0,*44